User: anonymous   Login
Location: Unspecified
(0.0000°N, 0.0000°E)
Time: 21:51:40
(UTC+00:00)
Language:

Yuri - Orbit

View from above orbital plane
View from above orbital plane
View from above satellite
View from above satellite

Ground track
Ground track

The orbit is defined by the following mean orbital elements,

1 10792U          26150.51300479 +.00000000 +00000-0 +00000-0 0 00005
2 10792   5.5154 284.1489 0015760 322.5604 236.2938  1.00222639    06
Epoch (UTC): 30 May 2026 12:18:43
Eccentricity: 0.0015760
inclination: 5.5154°
perigee height: 35734 km
apogee height: 35867 km
right ascension of ascending node: 284.1489°
argument of perigee: 322.5604°
revolutions per day: 1.00222639
mean anomaly at epoch: 236.2938°

The dashed part of the orbit path shows where the satellite is in the earth's shadow,  

DLR